Location: Newark
(45.5000°N, 11.4167°E)
Time: 05:43:51
(UTC+00:00)

Transit 2A Rocket - Pass Details

Date: 30 August 2019
Orbit: 592 x 911 km, 66.7° (Epoch: 19 September)

Event Time Altitude Azimuth Distance (km) Brightness Sun altitude
Rises 19:07:43 0° 279° (W) 3,316 9.8 -12.5°
Reaches altitude 10° 19:12:08 10° 312° (NW) 2,300 8.8 -13.2°
Maximum altitude 19:13:51 11° 331° (NNW) 2,164 8.2 -13.5°
Drops below altitude 10° 19:15:31 10° 350° (N) 2,230 7.9 -13.7°
Sets 19:19:37 0° 25° (NNE) 3,065 8.2 -14.4°
